Regional Weather Roundup
Issued by NWS

Home | Current Version | Previous Version | Text Only | Print | Product List | Glossary On
Versions: 1 2 3 4 5 6 7 8 9 10 11 12 13 14 15 16 17 18 19 20 21 22 23 24 25 26 27 28 29 30 31 32 33 34 35 36 37 38 39 40 41 42 43 44 45 46 47 48 49 50
238
ASUS44 KLUB 042301
RWRTX
WEST TEXAS WEATHER ROUNDUP
NATIONAL WEATHER SERVICE LUBBOCK TX
600 PM CDT WED MAY 04 2016

NOTE: "FAIR" INDICATES FEW OR NO CLOUDS BELOW 12,000 FEET WITH NO
SIGNIFICANT WEATHER AND/OR OBSTRUCTIONS TO VISIBILITY.

TXZ004-006>008-010-012-014-016-OKZ002-050000-
TEXAS PANHANDLE/OKLAHOMA PANHANDLE

CITY           SKY/WX    TMP DP  RH WIND       PRES   REMARKS
AMARILLO       SUNNY     78  36  21 VRB3      30.14F
BORGER         SUNNY     79  33  19 CALM      30.12S
CANADIAN       SUNNY     80  43  26 NE6G16    30.07S
DALHART        SUNNY     77  36  22 CALM      30.16F
DUMAS          SUNNY     79  39  23 CALM      30.15S
GUYMON         SUNNY     78  37  22 N7        30.10S
HEREFORD       SUNNY     79  34  19 NE5       30.16S
$$

TXZ026-029-035-045-048-050000-
SOUTHERN PANHANDLE/SOUTH PLAINS/ROLLING PLAINS

CITY           SKY/WX    TMP DP  RH WIND       PRES   REMARKS
CHILDRESS      SUNNY     84  32  15 MISG      30.04F
SEMINOLE       SUNNY     83  28  13 NE7       30.11F
LUBBOCK        SUNNY     82  27  13 N9G18     30.10F
SNYDER           N/A     82  37  20 NW10      30.08F
$$

TXZ052-054-060>062-072-078-127-140-154-169-050000-
PERMIAN BASIN/CONCHO VALLEY/BIG COUNTRY/EDWARDS PLATEAU

CITY           SKY/WX    TMP DP  RH WIND       PRES   REMARKS
ABILENE        SUNNY     80  41  24 N10       30.06F
BIG SPRING     SUNNY     81  32  17 NE6       30.10F
BROWNWOOD      SUNNY     79  45  29 N13       30.04F
JUNCTION       SUNNY     84  35  17 N10       30.05F
MIDLAND        SUNNY     85  26  11 N7G17     30.09F
ODESSA         SUNNY     85  22  10 VRB5      30.10F
SAN ANGELO     SUNNY     83  38  20 N9        30.07F
WINK           SUNNY     87  27  11 NE3       30.07F
$$

TXZ055-058-074-075-080-082-050000-
FAR WEST/SOUTHWEST MOUNTAINS/TRANS PECOS

CITY           SKY/WX    TMP DP  RH WIND       PRES   REMARKS
ALPINE         SUNNY     78  21  11 NE7       30.22F
DRYDEN           N/A     88  31  13 MISG      30.03F
EL PASO        MOSUNNY   84  22  10 MISG      30.08F
FORT STOCKTON  SUNNY     83  28  13 N6        30.10F
MARFA          SUNNY     77  23  13 VRB5      30.18F
PRESIDIO       FAIR      89  32  13 MISG      30.02F
$$

TXZ014-016-019-021>030-083-050000
TEXAS TECH WEST TEXAS MESONET/TEXAS PANHANDLE/NORTHERN SOUTH PLAINS

CITY           SKY/WX    TMP DP  RH WIND       PRES   REMARKS
ABERNATHY 5ENE   N/A     80  29  15 NW6       30.14S
AMARILLO 9NNE    N/A     79  36  21 NE5       30.13F
AMARILLO 7SSE    N/A     77  34  21 NE2       30.16S
AMHERST 1NE      N/A     80  26  13 N6        30.14F
BOOTLEG 11WNW    N/A     77  30  18 NE5       30.20F
CANADIAN 6E      N/A     79  42  26 N8        30.06S
CAPROCK CYN SP   N/A     81  34  18 NE6       30.10S
CHILDRESS 2NNE   N/A     84  35  17 NW5       30.06S
CLARENDON 2WSW   N/A     79  36  20 NW8       30.11S
CLAUDE 12SW      N/A     78  37  22 N9        30.14S
DIMMITT 2NE      N/A     78  29  16 NW9       30.16S
FLOYDADA 2NNE    N/A     79  26  14 N8        30.12S
FRIONA 2NE       N/A     78  29  16 NW5       30.17F
GOODLETT 3W      N/A     85  35  17 N3        30.03S
HART 3N          N/A     79  26  14 N7        30.15F
HEREFORD 2NW     N/A     78  29  16 NW6G13    30.18S
MCLEAN 1E        N/A     78  36  21 NW9       30.10S
MEMPHIS 1NE      N/A     83  33  16 N7G13     30.06F
MULESHOE 2SSW    N/A     80  26  13 NW1       30.15F
OLTON 6S         N/A     79  26  14 N6        30.14S
PALO DURO SP     N/A     79  37  21 N3        30.15S
PAMPA 2E         N/A     76  39  25 N5        30.13S
PLAINVIEW 1S     N/A     80  29  16 N6G13     30.13S
SILVERTON 7ESE   N/A     79  34  19 W3        30.10F
TULIA 2ENE       N/A     78  36  21 NE7       30.14F
TURKEY 2WSW      N/A     82  32  16 NW8       30.09S
UMBARGER 3NNE    N/A     77  36  22 W2        30.16F
$$

TXZ033>036-039>041-045>048-050000
TEXAS TECH WEST TEXAS MESONET/SOUTH PLAINS

CITY           SKY/WX    TMP DP  RH WIND       PRES   REMARKS
AIKEN 3WSW       N/A     81  31  16 N10       30.14S
ANDREWS 2NE      N/A     84  23  10 NE5       30.13F
ANTON 6SSW       N/A     82  29  15 NW3       30.13S
BROWNFIELD 2S    N/A     82  25  12 N7        30.12F
DENVR CTY 7WNW   N/A     82  21  10 N7        30.14F
GAIL 2ESE        N/A     84  31  14 N7        30.08F
LAMESA 2SE       N/A     84  27  12 N8        30.11F
LEVELLAND 4S     N/A     81  25  12 NE6       30.13F
LUBBOCK 3WNW     N/A     82  26  13 NE6       30.12F
MORTON 1ENE      N/A     81  25  12 NE2       30.14F
ODONNELL 1N      N/A     83  21  10 NE5       30.11S
PLAINS 3N        N/A     82  25  12 N5G10     30.14F
RALLS 1SE        N/A     81  28  14 N7        30.12F
REESE CENTER     N/A     81  27  14 NW5       30.13F
SEAGRAVES 1SW    N/A     84  26  12 NW3       30.12F
SEMINOLE 2NNE    N/A     83  25  12 NW3       30.12S
SLATON 2NE       N/A     82  23  11 N10       30.11F
SNYDER 3E        N/A     83  36  18 NW6       30.08F
SUNDOWN 8SW      N/A     83  25  12 N8        30.13F
TAHOKA 3NNE      N/A     83  23  11 NW7       30.11F
WOLFFORTH 6SSW   N/A     82  24  12 E5        30.12F
$$

TXZ031-032-036>038-042>044-050000-
TEXAS TECH WEST TEXAS MESONET/ROLLING PLAINS

CITY           SKY/WX    TMP DP  RH WIND       PRES   REMARKS
ASPERMONT 3NE    N/A     84  37  18 N8        30.05F
FLUVANNA 3WNW    N/A     82  28  14 W5        30.10S
GRAHAM 5SSW      N/A     82  28  13 N6        30.10F
GUTHRIE 10WSW    N/A     83  37  19 NE8       30.06F
HASKELL 1NW      N/A     82  35  17 N12       30.05F
JAYTON 1SSE      N/A     83  31  15 N7        30.06F
KNOX CITY 3NW    N/A     85  37  17 N2G8      30.04F
LK A HENRY 1NW   N/A     85  30  13 N7        30.08S
NORTHFIELD 1S    N/A     84  33  16 N5        30.06F
ODELL 4ENE       N/A     84  42  22 NW9       30.03F
PADUCAH 10SW     N/A     83  37  19 NE8       30.06F
POST 1NE         N/A     84  28  13 N6        30.09S
RRING SPRGS 3N   N/A     81  35  19 N6        30.09F
SEYMOUR 3NW      N/A     84  42  22 N6        30.03F
SPUR 1W          N/A     81  31  16 NE5       30.08S
WEINERT 2NNE     N/A     83  42  23 N1        30.05
WHITE RVR 6NE    N/A     83  32  16 N8        30.09
$$

TXZ052-054-060>062-072-078-127-140-154-169-050000-
TEXAS TECH WEST TEXAS MESONET/PERMIAN BASIN/
CONCHO VALLEY/BIG COUNTRY/EDWARDS PLATEAU

CITY           SKY/WX    TMP DP  RH WIND       PRES   REMARKS
COYANOSA 2N      N/A     85  29  13 SE2       30.09F
JUNCTION 1SSW    N/A     83  40  21 NW7       30.06F
MERTZON 3NNE     N/A     82  38  20 E2        30.10F
SAN ANGELO 7NW   N/A     83  33  17 NW6       30.08F
STRLNG CT 4WSW   N/A     82  38  21 N6        30.10F
ST LAWRNCE 5SW   N/A     83  26  12 N13       30.10F
SWEETWATR 11SW   N/A     80  40  24 N7        30.10F
WALL 1E          N/A     81  33  17 NW5       30.09F
$$

TXZ055-058-074-075-080-082-050000-
TEXAS TECH WEST TEXAS MESONET/FAR WEST/SOUTHWEST MOUNTAINS/TRANS PECOS

CITY           SKY/WX    TMP DP  RH WIND       PRES   REMARKS
PRSMN GAP BBNP   N/A     85  31  14 NE5       30.07F
GUADLPE MTN NP   N/A     73  20  13 E13       30.24F
$$




USA.gov is the U.S. government's official web portal to all federal, state and local government web resources and services.